La Crosse, WI

1:46 AM CDT on April 25, 2017 (GMT -0500)
La Crosse Municipal

Weather History for KLSE - May, 2012

Change the Weather History Date:

Monday, May 14, 2012

  Actual Average Record
Temperature  
Mean Temperature 67 °F 59 °F  
Max Temperature 83 °F 70 °F 93 °F (1932)
Min Temperature 50 °F 48 °F 30 °F (1895)
Degree Days  
Heating Degree Days 0 7  
Month to date heating degree days 65 119  
Since 1 July heating degree days 5728 7071  
Cooling Degree Days 2 1  
Month to date cooling degree days 20 12  
Year to date cooling degree days 43 19  
Growing Degree Days 16 (Base 50)    
Moisture  
Dew Point 44 °F    
Average Humidity 53    
Maximum Humidity 86    
Minimum Humidity 20    
Precipitation  
Precipitation 0.00 in 0.11 in 1.66 in (1900)
Month to date precipitation 2.23 1.56  
Year to date precipitation 9.83 9.11  
Snow  
Snow 0.00 in 0.00 in 0.00 in (2002)
Month to date snowfall 0.0 0.1  
Since 1 July snowfall 21.5 43.4  
Snow Depth 0.00 in    
Sea Level Pressure  
Sea Level Pressure 29.99 in    
Wind  
Wind Speed 8 mph (South)    
Max Wind Speed 14 mph    
Max Gust Speed 23 mph    
Visibility 10 miles    
Events      
T = Trace of Precipitation, MM = Missing Value Source: NWS Daily Summary

Daily Weather History Graph

Daily Weather History Graph

Search for Another Location

Airport or City:

Trip Planner

Search our weather history database for the weather conditions in past years. The results will help you decide how hot, cold, wet, or windy it might be!

Date:

Astronomy

May. 14, 2012 Rise Set
Actual Time 5:39 AM CDT 8:23 PM CDT
Civil Twilight 5:06 AM CDT 8:56 PM CDT
Nautical Twilight 4:24 AM CDT 9:39 PM CDT
Astronomical Twilight 3:36 AM CDT 10:27 PM CDT
Moon 2:26 AM CDT (5/14) 2:33 PM CDT (5/14)
Length of Visible Light 15h 50m
Length of Day
14h 43m
Waning Crescent, 32% of the Moon is Illuminated
May 14
Waning Crescent
May 20
New
May 28
First Quarter
Jun 4
Full
Jun 11
Last Quarter

Hourly Weather History & Observations

Time (CDT) Temp. Dew Point Humidity Pressure Visibility Wind Dir Wind Speed Gust Speed Precip Events Conditions
12:53 AM 50.0 °F 44.1 °F 80% 30.08 in 10.0 mi SE 5.8 mph - N/A   Clear
1:53 AM 50.0 °F 46.0 °F 86% 30.07 in 10.0 mi SSE 8.1 mph - N/A   Clear
2:53 AM 51.1 °F 46.9 °F 86% 30.06 in 10.0 mi SSE 6.9 mph - N/A   Clear
3:53 AM 50.0 °F 46.9 °F 89% 30.06 in 10.0 mi SSE 8.1 mph - N/A   Clear
4:53 AM 50.0 °F 46.9 °F 89% 30.06 in 10.0 mi SSE 10.4 mph - N/A   Clear
5:53 AM 50.0 °F 46.0 °F 86% 30.05 in 10.0 mi SSE 10.4 mph 20.7 mph N/A   Clear
6:53 AM 51.1 °F 46.9 °F 86% 30.06 in 10.0 mi South 11.5 mph - N/A   Clear
7:53 AM 55.0 °F 48.0 °F 77% 30.06 in 10.0 mi South 6.9 mph - N/A   Clear
8:53 AM 60.1 °F 45.0 °F 57% 30.07 in 10.0 mi SSE 8.1 mph - N/A   Clear
9:53 AM 66.0 °F 46.0 °F 48% 30.06 in 10.0 mi South 5.8 mph - N/A   Clear
10:53 AM 71.1 °F 46.9 °F 42% 30.04 in 10.0 mi SSE 5.8 mph - N/A   Clear
11:53 AM 77.0 °F 43.0 °F 30% 30.02 in 10.0 mi West 8.1 mph - N/A   Clear
12:53 PM 79.0 °F 43.0 °F 28% 30.00 in 10.0 mi WSW 11.5 mph - N/A   Clear
1:53 PM 80.1 °F 39.9 °F 24% 29.98 in 10.0 mi WSW 10.4 mph 23.0 mph N/A   Clear
2:53 PM 82.0 °F 39.9 °F 22% 29.96 in 10.0 mi West 11.5 mph - N/A   Clear
3:53 PM 82.0 °F 37.9 °F 21% 29.94 in 10.0 mi WSW 6.9 mph - N/A   Clear
4:53 PM 82.0 °F 39.0 °F 22% 29.93 in 10.0 mi WSW 8.1 mph - N/A   Clear
5:53 PM 82.0 °F 39.9 °F 22% 29.91 in 10.0 mi SW 8.1 mph - N/A   Clear
6:53 PM 79.0 °F 42.1 °F 27% 29.90 in 10.0 mi South 4.6 mph - N/A   Clear
7:53 PM 73.9 °F 44.1 °F 34% 29.89 in 10.0 mi South 5.8 mph - N/A   Clear
8:53 PM 72.0 °F 46.0 °F 40% 29.88 in 10.0 mi South 8.1 mph - N/A   Clear
9:53 PM 70.0 °F 46.9 °F 44% 29.89 in 10.0 mi South 8.1 mph - N/A   Clear
11:53 PM 66.0 °F 48.0 °F 52% 29.86 in 10.0 mi SSE 9.2 mph - N/A   Clear